Meadow Lake, CO

2:56 AM MDT on July 23, 2017 (GMT -0600)
Meadow Lake

Weather History for KFLY - November, 2012

Change the Weather History Date:

Friday, November 2, 2012

  Actual Average (KCOS) Record (KCOS)
Temperature  
Mean Temperature 44 °F -  
Max Temperature 56 °F 50 °F 76 °F (1941)
Min Temperature 32 °F 27 °F -8 °F (1951)
Degree Days  
Heating Degree Days 22    
Moisture  
Dew Point 17 °F    
Average Humidity 36    
Maximum Humidity 76    
Minimum Humidity 14    
Precipitation  
Precipitation 0.00 in - - ()
Sea Level Pressure  
Sea Level Pressure 30.11 in    
Wind  
Wind Speed 8 mph (NNW)    
Max Wind Speed 15 mph    
Max Gust Speed 24 mph    
Visibility 10 miles    
Events      
Averages and records for this station are not official NWS values.
T = Trace of Precipitation, MM = Missing Value Source: NWS Daily Summary

Daily Weather History Graph

Daily Weather History Graph

Search for Another Location

Airport or City:

Trip Planner

Search our weather history database for the weather conditions in past years. The results will help you decide how hot, cold, wet, or windy it might be!

Date:

Astronomy

Nov. 02, 2012 Rise Set
Actual Time 7:27 AM MDT 5:55 PM MDT
Civil Twilight 6:59 AM MDT 6:23 PM MDT
Nautical Twilight 6:27 AM MDT 6:55 PM MDT
Astronomical Twilight 5:56 AM MDT 7:26 PM MDT
Moon 8:46 PM MDT (11/2) 10:48 AM MDT (11/2)
Length of Visible Light 11h 24m
Length of Day
10h 28m
Waning Gibbous, 87% of the Moon is Illuminated
Nov 2
Waning Gibbous
Nov 6
Last Quarter
Nov 13
New
Nov 20
First Quarter
Nov 28
Full

Hourly Weather History & Observations

Time (MDT) Temp. Windchill Dew Point Humidity Pressure Visibility Wind Dir Wind Speed Gust Speed Precip Events Conditions
12:12 AM 48.2 °F - 21.0 °F 34% 30.04 in 10.0 mi NW 9.2 mph - N/A   Clear
12:32 AM 47.8 °F - 20.1 °F 33% 30.04 in 10.0 mi NNW 6.9 mph - N/A   Clear
12:52 AM 49.6 °F - 19.8 °F 31% 30.04 in 10.0 mi NW 6.9 mph - N/A   Clear
1:12 AM 46.8 °F - 20.3 °F 35% 30.04 in 10.0 mi NW 8.1 mph - N/A   Clear
1:32 AM 48.9 °F - 17.8 °F 29% 30.04 in 10.0 mi NNW 9.2 mph - N/A   Clear
1:52 AM 51.3 °F - 14.0 °F 23% 30.03 in 10.0 mi NNW 9.2 mph 16.1 mph N/A   Clear
2:12 AM 54.9 °F - 11.1 °F 18% 30.04 in 10.0 mi NNW 9.2 mph 20.7 mph N/A   Clear
2:32 AM 53.6 °F - 12.0 °F 19% 30.04 in 10.0 mi NNW 13.8 mph - N/A   Clear
2:52 AM 53.6 °F - 11.8 °F 19% 30.04 in 10.0 mi NNW 13.8 mph - N/A   Clear
3:12 AM 54.0 °F - 10.6 °F 18% 30.03 in 10.0 mi NNW 10.4 mph 16.1 mph N/A   Clear
3:32 AM 54.3 °F - 8.8 °F 16% 30.03 in 10.0 mi NNW 12.7 mph - N/A   Clear
3:52 AM 52.3 °F - 9.5 °F 18% 30.04 in 10.0 mi WNW 15.0 mph 20.7 mph N/A   Clear
4:12 AM 54.5 °F - 7.2 °F 15% 30.04 in 10.0 mi WNW 15.0 mph 24.2 mph N/A   Clear
4:32 AM 54.5 °F - 7.0 °F 15% 30.04 in 10.0 mi NW 15.0 mph 21.9 mph N/A   Clear
4:52 AM 53.1 °F - 6.8 °F 16% 30.04 in 10.0 mi NNW 9.2 mph 18.4 mph N/A   Clear
5:12 AM 54.9 °F - 5.9 °F 14% 30.04 in 10.0 mi NNW 10.4 mph 18.4 mph N/A   Clear
5:32 AM 51.8 °F - 7.5 °F 17% 30.06 in 10.0 mi NNW 5.8 mph - N/A   Clear
5:52 AM 48.2 °F - 10.2 °F 22% 30.05 in 10.0 mi NW 6.9 mph - N/A   Clear
6:12 AM 48.6 °F - 8.6 °F 20% 30.06 in 10.0 mi NNW 6.9 mph - N/A   Clear
6:32 AM 50.2 °F - 7.7 °F 18% 30.06 in 10.0 mi NNW 8.1 mph 16.1 mph N/A   Clear
6:52 AM 48.9 °F - 7.5 °F 19% 30.07 in 10.0 mi NW 5.8 mph - N/A   Clear
7:12 AM 48.7 °F - 7.9 °F 19% 30.07 in 10.0 mi NNW 4.6 mph - N/A   Clear
7:32 AM 46.8 °F - 9.5 °F 22% 30.08 in 10.0 mi NNW 6.9 mph - N/A   Clear
7:52 AM 47.3 °F - 9.5 °F 22% 30.08 in 10.0 mi NNW 6.9 mph - N/A   Clear
8:12 AM 47.7 °F - 10.6 °F 22% 30.10 in 10.0 mi North 9.2 mph 16.1 mph N/A   Clear
8:32 AM 47.3 °F - 15.6 °F 28% 30.10 in 10.0 mi North 6.9 mph - N/A   Clear
8:52 AM 47.5 °F - 19.6 °F 33% 30.12 in 10.0 mi NNE 6.9 mph - N/A   Clear
9:12 AM 48.9 °F - 21.0 °F 33% 30.12 in 10.0 mi North 4.6 mph - N/A   Clear
9:32 AM 49.6 °F - 21.4 °F 33% 30.12 in 10.0 mi North 11.5 mph 16.1 mph N/A   Clear
9:52 AM 50.9 °F - 20.8 °F 31% 30.12 in 10.0 mi North 10.4 mph 17.3 mph N/A   Clear
10:12 AM 51.8 °F - 20.7 °F 30% 30.11 in 10.0 mi North 10.4 mph 17.3 mph N/A   Clear
10:32 AM 52.2 °F - 21.6 °F 30% 30.12 in 10.0 mi North 11.5 mph 17.3 mph N/A   Clear
10:52 AM 52.7 °F - 21.7 °F 30% 30.12 in 10.0 mi North 8.1 mph - N/A   Clear
11:12 AM 54.0 °F - 21.4 °F 28% 30.13 in 10.0 mi North 5.8 mph - N/A   Clear
11:32 AM 54.5 °F - 21.7 °F 28% 30.13 in 10.0 mi NNE 9.2 mph 16.1 mph N/A   Clear
11:49 AM 55.4 °F - 23.0 °F 29% 30.13 in 10.0 mi North 6.9 mph 18.4 mph N/A   Clear
7:32 PM 37.9 °F 35.5 °F 24.8 °F 59% 30.18 in 10.0 mi SSE 3.5 mph - N/A   Clear
7:52 PM 39.4 °F 37.2 °F 25.7 °F 58% 30.18 in 10.0 mi ENE 3.5 mph - N/A   Scattered Clouds
8:12 PM 39.4 °F 37.2 °F 25.5 °F 58% 30.19 in 10.0 mi NNW 3.5 mph - N/A   Mostly Cloudy
8:32 PM 38.7 °F 35.2 °F 25.5 °F 59% 30.19 in 10.0 mi North 4.6 mph - N/A   Scattered Clouds
8:52 PM 39.4 °F 35.2 °F 26.2 °F 59% 30.19 in 10.0 mi North 5.8 mph - N/A   Clear
9:12 PM 38.5 °F 34.1 °F 25.9 °F 61% 30.20 in 10.0 mi North 5.8 mph - N/A   Clear
9:32 PM 38.5 °F 34.1 °F 25.9 °F 61% 30.21 in 10.0 mi NNW 5.8 mph - N/A   Clear
9:52 PM 35.2 °F 31.2 °F 25.2 °F 67% 30.22 in 10.0 mi NW 4.6 mph - N/A   Clear
10:12 PM 35.4 °F - 25.0 °F 66% 30.22 in 10.0 mi Calm Calm - N/A   Clear
10:32 PM 34.0 °F 28.0 °F 25.2 °F 70% 30.23 in 10.0 mi WSW 6.9 mph - N/A   Clear
10:52 PM 32.9 °F 28.5 °F 24.8 °F 72% 30.22 in 10.0 mi WSW 4.6 mph - N/A   Clear
11:12 PM 32.2 °F 28.9 °F 25.0 °F 75% 30.22 in 10.0 mi SW 3.5 mph - N/A   Clear
11:32 PM 32.0 °F - 24.8 °F 75% 30.22 in 10.0 mi Calm Calm - N/A   Clear
11:52 PM 33.1 °F 26.9 °F 26.2 °F 76% 30.22 in 10.0 mi SSW 6.9 mph - N/A   Clear